Location: Goheenville
(40.9070°N, 79.3720°W)
Time: 06:50:58
(UTC-04:00)

Cosmos 1727 Rocket - Visible Passes

Search period start: 24 July 2017 00:00
Search period end: 03 August 2017 00:00
Orbit: 961 x 996 km, 82.9° (Epoch: 23 July)

Date Brightness Start Highest point End Pass type
(mag) Time Alt. Az. Time Alt. Az. Time Alt. Az.
24 Jul 6.2 04:15:37 10° NNE 04:20:37 25° ENE 04:25:34 10° SE visible
25 Jul 5.1 04:41:21 10° N 04:47:16 45° ENE 04:53:08 10° SSE visible
26 Jul 6.8 03:25:06 10° NE 03:27:16 12° ENE 03:29:26 10° E visible
26 Jul 4.1 05:07:29 10° N 05:13:44 82° E 05:19:54 10° S visible
27 Jul 6.2 03:49:27 10° NNE 03:54:11 22° ENE 03:58:53 10° ESE visible
27 Jul 4.1 05:33:59 10° NNW 05:40:00 55° W 05:45:59 10° SSW visible
28 Jul 5.3 04:15:05 10° N 04:20:53 40° ENE 04:26:38 10° SE visible
29 Jul 6.9 02:59:48 10° NE 03:00:48 10° ENE 03:01:47 10° ENE visible
29 Jul 4.2 04:41:10 10° N 04:47:23 74° E 04:53:31 10° SSE visible
30 Jul 6.3 03:23:19 10° NNE 03:27:45 20° ENE 03:32:10 10° ESE visible
30 Jul 4.0 05:07:35 10° NNW 05:13:41 61° W 05:19:43 10° S visible
31 Jul 5.4 03:48:49 10° N 03:54:29 36° ENE 04:00:06 10° SE visible
31 Jul 4.7 05:34:24 10° NNW 05:39:48 33° W 05:45:11 10° SSW visible
01 Aug 4.3 04:14:50 10° N 04:21:01 67° E 04:27:08 10° SSE visible
02 Aug 6.3 02:57:13 10° NNE 03:01:19 18° ENE 03:05:23 10° ESE visible
02 Aug 3.9 04:41:12 10° NNW 04:47:21 68° W 04:53:26 10° S visible
